GPS BIIRM-2 (PRN 31)

Last updated on Wed Jun 24 2026 00:03:27 GMT+0000 (Coordinated Universal Time)

1 29486U 06042A 26173.47394897 .00000076 00000+0 00000+0 0 9992 2 29486 54.7115 151.1291 0106724 54.5429 302.9560 2.00569602144490
UTC large
Height (km)
Speed (km/s)
/
Latitude / Longitude
Inclination (degrees)
Orbital Period (minutes)
Azimuth
Elevation
Range (km)
Doppler Factor

Next 0 passes for location: London (51.5072 / 0.1276)

No passes found over London.
GPS BIIRM-2 (PRN 31)